| time (UTC) | temp C | wind direction | speed KPH | gust KPH | rain 1hr cm | rain 24hr cm | rain mn cm | humidity % | barometer mb |
| 20260504081915 | 5 | 182 | 8.0 | 11.3 | 0.00 | 0.00 | 0.00 | 65 | 1005.5 |
| 20260504081412 | 5 | 175 | 6.4 | 8.0 | 0.00 | 0.00 | 0.00 | 64 | 1005.6 |
| 20260504080908 | 5 | 168 | 4.8 | 8.0 | 0.00 | 0.00 | 0.00 | 63 | 1005.6 |
| 20260504080405 | 6 | 191 | 6.4 | 9.7 | 0.00 | 0.00 | 0.00 | 62 | 1005.5 |
| 20260504070333 | 8 | 226 | 6.4 | 9.7 | 0.00 | 0.00 | 0.00 | 59 | 1005.5 |
| 20260504060247 | 7 | 236 | 8.0 | 12.9 | 0.00 | 0.00 | 0.00 | 52 | 1005.7 |
| 20260504050715 | 8 | 226 | 8.0 | 11.3 | 0.00 | 0.00 | 0.00 | 46 | 1005.8 |
| 20260504050212 | 8 | 240 | 9.7 | 12.9 | 0.00 | 0.00 | 0.00 | 45 | 1006.0 |
| 20260504045709 | 8 | 264 | 8.0 | 11.3 | 0.00 | 0.00 | 0.00 | 45 | 1006.0 |
| 20260504045209 | 8 | 252 | 8.0 | 9.7 | 0.00 | 0.00 | 0.00 | 44 | 1005.9 |
| 20260504044708 | 8 | 252 | 8.0 | 9.7 | 0.00 | 0.00 | 0.00 | 44 | 1006.3 |
| 20260504044205 | 8 | 252 | 4.8 | 4.8 | 0.00 | 0.00 | 0.00 | 44 | 1006.3 |
| 20260504043701 | 8 | 257 | 17.7 | 20.9 | 0.00 | 0.00 | 0.00 | 43 | 1006.5 |
| 20260504043158 | 8 | 249 | 4.8 | 8.0 | 0.00 | 0.00 | 0.00 | 43 | 1006.5 |
| 20260504042656 | 8 | 281 | 8.0 | 11.3 | 0.00 | 0.00 | 0.00 | 42 | 1006.5 |
| 20260504042152 | 8 | 229 | 6.4 | 8.0 | 0.00 | 0.00 | 0.00 | 42 | 1006.4 |
| 20260504041648 | 8 | 217 | 8.0 | 9.7 | 0.00 | 0.00 | 0.00 | 42 | 1006.4 |
| 20260504041144 | 8 | 258 | 8.0 | 11.3 | 0.00 | 0.00 | 0.00 | 42 | 1006.4 |
| 20260504040642 | 8 | 262 | 8.0 | 11.3 | 0.00 | 0.00 | 0.00 | 41 | 1006.3 |
| 20260504040138 | 8 | 226 | 4.8 | 8.0 | 0.00 | 0.00 | 0.00 | 41 | 1006.5 |
| 20260504035635 | 8 | 265 | 8.0 | 11.3 | 0.00 | 0.00 | 0.00 | 41 | 1006.4 |
| 20260504035132 | 8 | 220 | 4.8 | 4.8 | 0.00 | 0.00 | 0.00 | 43 | 1006.4 |
| 20260504034630 | 8 | 255 | 8.0 | 11.3 | 0.00 | 0.00 | 0.00 | 43 | 1006.4 |
| 20260504034126 | 8 | 210 | 6.4 | 9.7 | 0.00 | 0.00 | 0.00 | 43 | 1006.6 |
| 20260504033624 | 8 | 187 | 4.8 | 4.8 | 0.00 | 0.00 | 0.00 | 44 | 1006.6 |
| 20260504033121 | 8 | 221 | 4.8 | 4.8 | 0.00 | 0.00 | 0.00 | 44 | 1006.5 |
| 20260504032618 | 8 | 237 | 9.7 | 14.5 | 0.00 | 0.00 | 0.00 | 43 | 1006.7 |
| 20260504032115 | 8 | 258 | 4.8 | 8.0 | 0.00 | 0.00 | 0.00 | 43 | 1006.7 |
| 20260504031612 | 8 | 235 | 6.4 | 8.0 | 0.00 | 0.00 | 0.00 | 43 | 1006.6 |
| 20260504031108 | 8 | 252 | 6.4 | 8.0 | 0.00 | 0.00 | 0.00 | 43 | 1006.7 |
| 20260504030605 | 8 | 241 | 4.8 | 8.0 | 0.00 | 0.00 | 0.00 | 43 | 1006.8 |
| 20260504025559 | 8 | 238 | 16.1 | 20.9 | 0.00 | 0.00 | 0.00 | 42 | 1006.7 |
| 20260504025055 | 8 | 213 | 3.2 | 3.2 | 0.00 | 0.00 | 0.00 | 42 | 1006.8 |
| 20260504024553 | 8 | 252 | 9.7 | 11.3 | 0.00 | 0.00 | 0.00 | 42 | 1006.8 |
| 20260504024049 | 8 | 250 | 6.4 | 9.7 | 0.00 | 0.00 | 0.00 | 42 | 1006.8 |
| 20260504023546 | 9 | 256 | 8.0 | 9.7 | 0.00 | 0.00 | 0.00 | 42 | 1007.0 |
| 20260504023042 | 9 | 249 | 4.8 | 4.8 | 0.00 | 0.00 | 0.00 | 41 | 1007.2 |
| 20260504022538 | 9 | 279 | 6.4 | 8.0 | 0.00 | 0.00 | 0.00 | 42 | 1006.8 |
| 20260504022035 | 9 | 229 | 12.9 | 14.5 | 0.00 | 0.00 | 0.00 | 41 | 1006.9 |
| 20260504021532 | 9 | 265 | 11.3 | 12.9 | 0.00 | 0.00 | 0.00 | 41 | 1006.8 |
| 20260504021029 | 9 | 217 | 6.4 | 8.0 | 0.00 | 0.00 | 0.00 | 41 | 1006.9 |
| 20260504020526 | 10 | 287 | 6.4 | 8.0 | 0.00 | 0.00 | 0.00 | 41 | 1007.2 |
| 20260504020022 | 10 | 246 | 9.7 | 12.9 | 0.00 | 0.00 | 0.00 | 40 | 1006.9 |
| 20260504015518 | 10 | 287 | 9.7 | 11.3 | 0.00 | 0.00 | 0.00 | 41 | 1007.0 |
| 20260504015015 | 9 | 228 | 4.8 | 8.0 | 0.00 | 0.00 | 0.00 | 41 | 1007.2 |
| 20260504014511 | 10 | 241 | 4.8 | 4.8 | 0.00 | 0.00 | 0.00 | 41 | 1007.0 |
| 20260504014008 | 9 | 248 | 4.8 | 8.0 | 0.00 | 0.00 | 0.00 | 40 | 1007.0 |
| 20260504013506 | 10 | 207 | 6.4 | 8.0 | 0.00 | 0.00 | 0.00 | 40 | 1007.1 |
| 20260504013002 | 9 | 276 | 6.4 | 9.7 | 0.00 | 0.00 | 0.00 | 40 | 1007.1 |
| 20260504012500 | 9 | 237 | 4.8 | 8.0 | 0.00 | 0.00 | 0.00 | 41 | 1007.2 |
| 20260504011958 | 9 | 207 | 3.2 | 3.2 | 0.00 | 0.00 | 0.00 | 41 | 1007.1 |
| 20260504011454 | 9 | 215 | 3.2 | 3.2 | 0.00 | 0.00 | 0.00 | 40 | 1007.0 |
| 20260504010950 | 8 | 269 | 4.8 | 8.0 | 0.00 | 0.00 | 0.00 | 42 | 1007.2 |
| 20260504010446 | 8 | 256 | 3.2 | 3.2 | 0.00 | 0.00 | 0.00 | 43 | 1007.1 |
| 20260504005942 | 8 | 191 | 0.0 | 1.6 | 0.00 | 0.00 | 0.00 | 45 | 1007.0 |
| 20260504005439 | 8 | 263 | 6.4 | 9.7 | 0.00 | 0.00 | 0.00 | 43 | 1006.9 |
| 20260504004937 | 8 | 178 | 0.0 | 1.6 | 0.00 | 0.00 | 0.00 | 45 | 1006.8 |
| 20260504004434 | 8 | 178 | 0.0 | 0.0 | 0.00 | 0.00 | 0.00 | 42 | 1006.8 |
| 20260504003931 | 8 | 177 | 0.0 | 3.2 | 0.00 | 0.00 | 0.00 | 42 | 1006.9 |
| 20260504003427 | 9 | 177 | 1.6 | 1.6 | 0.00 | 0.00 | 0.00 | 42 | 1006.8 |
| 20260504002924 | 9 | 178 | 1.6 | 3.2 | 0.00 | 0.00 | 0.00 | 41 | 1006.7 |
| 20260504002421 | 9 | 180 | 0.0 | 1.6 | 0.00 | 0.00 | 0.00 | 40 | 1006.6 |
| 20260504001918 | 10 | 210 | 1.6 | 1.6 | 0.00 | 0.00 | 0.00 | 39 | 1006.6 |
| 20260504001416 | 10 | 223 | 3.2 | 3.2 | 0.00 | 0.00 | 0.00 | 39 | 1006.6 |
| 20260504000912 | 9 | 177 | 1.6 | 1.6 | 0.00 | 0.00 | 0.00 | 38 | 1006.5 |
| 20260504000409 | 9 | 163 | 1.6 | 1.6 | 0.00 | 0.00 | 0.00 | 39 | 1006.5 |
| 20260503235907 | 10 | 164 | 1.6 | 1.6 | 0.00 | 0.00 | 0.00 | 39 | 1006.6 |
| 20260503235405 | 10 | 192 | 1.6 | 1.6 | 0.00 | 0.00 | 0.00 | 39 | 1006.4 |
| 20260503234902 | 10 | 271 | 1.6 | 4.8 | 0.00 | 0.00 | 0.00 | 40 | 1006.4 |
| 20260503234359 | 10 | 169 | 0.0 | 0.0 | 0.00 | 0.00 | 0.00 | 38 | 1006.4 |
| 20260503233857 | 10 | 164 | 0.0 | 0.0 | 0.00 | 0.00 | 0.00 | 39 | 1006.4 |
| 20260503233353 | 10 | 169 | 0.0 | 1.6 | 0.00 | 0.00 | 0.00 | 38 | 1006.6 |
| 20260503232849 | 10 | 190 | 1.6 | 1.6 | 0.00 | 0.00 | 0.00 | 36 | 1006.6 |
| 20260503232346 | 11 | 147 | 0.0 | 0.0 | 0.00 | 0.00 | 0.00 | 38 | 1006.4 |
| 20260503231845 | 11 | 180 | 1.6 | 1.6 | 0.00 | 0.00 | 0.00 | 36 | 1006.5 |
| 20260503231341 | 11 | 269 | 4.8 | 4.8 | 0.00 | 0.00 | 0.00 | 35 | 1006.5 |
| 20260503230838 | 11 | 179 | 1.6 | 1.6 | 0.00 | 0.00 | 0.00 | 36 | 1006.4 |
| 20260503230334 | 11 | 277 | 3.2 | 3.2 | 0.00 | 0.00 | 0.00 | 37 | 1006.4 |
| 20260503225833 | 11 | 199 | 3.2 | 3.2 | 0.00 | 0.00 | 0.00 | 37 | 1006.4 |
| 20260503225328 | 11 | 234 | 3.2 | 4.8 | 0.00 | 0.00 | 0.00 | 35 | 1006.3 |
| 20260503224824 | 11 | 232 | 3.2 | 3.2 | 0.00 | 0.00 | 0.00 | 36 | 1006.3 |
| 20260503224322 | 11 | 251 | 6.4 | 11.3 | 0.00 | 0.00 | 0.00 | 34 | 1006.4 |
| 20260503223820 | 11 | 255 | 4.8 | 4.8 | 0.00 | 0.00 | 0.00 | 32 | 1006.4 |
| 20260503223317 | 11 | 262 | 6.4 | 8.0 | 0.00 | 0.00 | 0.00 | 34 | 1006.5 |
| 20260503222812 | 11 | 173 | 1.6 | 3.2 | 0.00 | 0.00 | 0.00 | 34 | 1006.3 |
| 20260503222311 | 11 | 214 | 3.2 | 4.8 | 0.00 | 0.00 | 0.00 | 34 | 1006.4 |
| 20260503221809 | 11 | 244 | 8.0 | 11.3 | 0.00 | 0.00 | 0.00 | 33 | 1006.6 |
| 20260503221307 | 11 | 270 | 4.8 | 4.8 | 0.00 | 0.00 | 0.00 | 32 | 1006.5 |
| 20260503220803 | 11 | 269 | 8.0 | 9.7 | 0.00 | 0.00 | 0.00 | 33 | 1006.5 |
| 20260503220300 | 11 | 252 | 3.2 | 4.8 | 0.00 | 0.00 | 0.00 | 35 | 1006.5 |
| 20260503215756 | 11 | 262 | 3.2 | 4.8 | 0.00 | 0.00 | 0.00 | 35 | 1006.6 |
| 20260503215253 | 11 | 87 | 1.6 | 3.2 | 0.00 | 0.00 | 0.00 | 35 | 1006.6 |
| 20260503214752 | 11 | 189 | 3.2 | 4.8 | 0.00 | 0.00 | 0.00 | 32 | 1006.7 |
| 20260503214248 | 11 | 290 | 8.0 | 9.7 | 0.00 | 0.00 | 0.00 | 33 | 1006.6 |
| 20260503213746 | 11 | 238 | 3.2 | 3.2 | 0.00 | 0.00 | 0.00 | 34 | 1006.5 |
| 20260503213243 | 11 | 80 | 3.2 | 4.8 | 0.00 | 0.00 | 0.00 | 33 | 1006.6 |
| 20260503212740 | 11 | 295 | 3.2 | 4.8 | 0.00 | 0.00 | 0.00 | 35 | 1006.6 |
| 20260503212238 | 11 | 264 | 8.0 | 11.3 | 0.00 | 0.00 | 0.00 | 31 | 1006.6 |
| 20260503211735 | 11 | 91 | 3.2 | 3.2 | 0.00 | 0.00 | 0.00 | 35 | 1006.8 |
| 20260503211231 | 11 | 235 | 9.7 | 11.3 | 0.00 | 0.00 | 0.00 | 33 | 1006.7 |
| 20260503210727 | 11 | 262 | 8.0 | 11.3 | 0.00 | 0.00 | 0.00 | 34 | 1006.9 |
| 20260503210225 | 11 | 241 | 6.4 | 9.7 | 0.00 | 0.00 | 0.00 | 34 | 1006.7 |
| 20260503205720 | 11 | 89 | 1.6 | 1.6 | 0.00 | 0.00 | 0.00 | 34 | 1006.7 |
| 20260503205216 | 11 | 124 | 1.6 | 1.6 | 0.00 | 0.00 | 0.00 | 37 | 1006.6 |
| 20260503204713 | 11 | 248 | 3.2 | 3.2 | 0.00 | 0.00 | 0.00 | 35 | 1006.7 |
| 20260503204211 | 11 | 37 | 4.8 | 4.8 | 0.00 | 0.00 | 0.00 | 36 | 1006.9 |
| 20260503203707 | 11 | 293 | 3.2 | 3.2 | 0.00 | 0.00 | 0.00 | 35 | 1006.9 |
| 20260503203205 | 11 | 259 | 3.2 | 3.2 | 0.00 | 0.00 | 0.00 | 35 | 1006.8 |
| 20260503202702 | 11 | 180 | 1.6 | 3.2 | 0.00 | 0.00 | 0.00 | 37 | 1007.0 |
| 20260503202200 | 11 | 252 | 3.2 | 4.8 | 0.00 | 0.00 | 0.00 | 35 | 1006.9 |
| 20260503201658 | 11 | 224 | 4.8 | 4.8 | 0.00 | 0.00 | 0.00 | 37 | 1007.0 |
| 20260503201155 | 10 | 272 | 8.0 | 11.3 | 0.00 | 0.00 | 0.00 | 38 | 1006.9 |
| 20260503200651 | 10 | 258 | 1.6 | 3.2 | 0.00 | 0.00 | 0.00 | 38 | 1007.0 |
| 20260503200147 | 11 | 269 | 1.6 | 3.2 | 0.00 | 0.00 | 0.00 | 37 | 1006.9 |
| 20260503195644 | 11 | 229 | 1.6 | 1.6 | 0.00 | 0.00 | 0.00 | 38 | 1007.4 |
| 20260503195141 | 11 | 237 | 4.8 | 4.8 | 0.00 | 0.00 | 0.00 | 34 | 1007.3 |
| 20260503194638 | 12 | 338 | 4.8 | 4.8 | 0.00 | 0.00 | 0.00 | 37 | 1007.2 |
| 20260503194133 | 12 | 326 | 4.8 | 9.7 | 0.00 | 0.00 | 0.00 | 37 | 1007.0 |
| 20260503193631 | 11 | 237 | 6.4 | 9.7 | 0.00 | 0.00 | 0.00 | 36 | 1007.4 |
| 20260503193126 | 10 | 40 | 1.6 | 1.6 | 0.00 | 0.00 | 0.00 | 41 | 1007.5 |
| 20260503192616 | 11 | 253 | 11.3 | 12.9 | 0.00 | 0.00 | 0.00 | 38 | 1007.6 |
| 20260503192112 | 11 | 245 | 8.0 | 9.7 | 0.00 | 0.00 | 0.00 | 38 | 1007.6 |
| 20260503191609 | 11 | 352 | 4.8 | 8.0 | 0.00 | 0.00 | 0.00 | 42 | 1007.7 |
| 20260503191106 | 11 | 245 | 6.4 | 8.0 | 0.00 | 0.00 | 0.00 | 38 | 1007.7 |
| 20260503190603 | 11 | 321 | 3.2 | 3.2 | 0.00 | 0.00 | 0.00 | 38 | 1007.6 |
| 20260503190100 | 11 | 249 | 6.4 | 9.7 | 0.00 | 0.00 | 0.00 | 38 | 1007.7 |
| 20260503185556 | 10 | 222 | 4.8 | 8.0 | 0.00 | 0.00 | 0.00 | 41 | 1007.8 |
| 20260503185056 | 10 | 232 | 4.8 | 8.0 | 0.00 | 0.00 | 0.00 | 41 | 1007.9 |
| 20260503184552 | 11 | 352 | 6.4 | 8.0 | 0.00 | 0.00 | 0.00 | 40 | 1008.1 |
| 20260503184049 | 11 | 200 | 0.0 | 1.6 | 0.00 | 0.00 | 0.00 | 46 | 1007.9 |
| 20260503183545 | 11 | 236 | 4.8 | 4.8 | 0.00 | 0.00 | 0.00 | 39 | 1007.9 |
| 20260503183043 | 11 | 232 | 6.4 | 8.0 | 0.00 | 0.00 | 0.00 | 39 | 1007.8 |
| 20260503182541 | 11 | 253 | 3.2 | 3.2 | 0.00 | 0.00 | 0.00 | 38 | 1008.0 |
| 20260503182039 | 11 | 238 | 8.0 | 11.3 | 0.00 | 0.00 | 0.00 | 39 | 1008.1 |
| 20260503181536 | 10 | 200 | 3.2 | 4.8 | 0.00 | 0.00 | 0.00 | 42 | 1008.0 |
| 20260503181032 | 11 | 251 | 8.0 | 11.3 | 0.00 | 0.00 | 0.00 | 38 | 1008.2 |
| 20260503180529 | 11 | 184 | 11.3 | 16.1 | 0.00 | 0.00 | 0.00 | 43 | 1008.1 |
| 20260503180027 | 10 | 201 | 1.6 | 3.2 | 0.00 | 0.00 | 0.00 | 44 | 1008.3 |
| 20260503175524 | 11 | 334 | 6.4 | 8.0 | 0.00 | 0.00 | 0.00 | 43 | 1008.1 |
| 20260503175020 | 11 | 35 | 3.2 | 3.2 | 0.00 | 0.00 | 0.00 | 43 | 1008.3 |
| 20260503174518 | 10 | 302 | 4.8 | 4.8 | 0.00 | 0.00 | 0.00 | 43 | 1008.2 |
| 20260503174014 | 10 | 5 | 4.8 | 4.8 | 0.00 | 0.00 | 0.00 | 43 | 1008.6 |
| 20260503173509 | 10 | 21 | 4.8 | 4.8 | 0.00 | 0.00 | 0.00 | 44 | 1008.6 |
| 20260503173006 | 10 | 299 | 8.0 | 12.9 | 0.00 | 0.00 | 0.00 | 41 | 1008.4 |
| 20260503172504 | 10 | 267 | 6.4 | 8.0 | 0.00 | 0.00 | 0.00 | 43 | 1008.6 |
| 20260503172001 | 10 | 230 | 6.4 | 9.7 | 0.00 | 0.00 | 0.00 | 43 | 1008.4 |
| 20260503171457 | 10 | 143 | 1.6 | 1.6 | 0.00 | 0.00 | 0.00 | 46 | 1008.8 |
| 20260503170954 | 10 | 290 | 4.8 | 4.8 | 0.00 | 0.00 | 0.00 | 44 | 1008.5 |
| 20260503170450 | 10 | 37 | 3.2 | 3.2 | 0.00 | 0.00 | 0.00 | 43 | 1008.4 |
| 20260503150843 | 10 | 78 | 3.2 | 4.8 | 0.00 | 0.00 | 0.00 | 40 | 1009.8 |
| 20260503150339 | 10 | 290 | 4.8 | 8.0 | 0.00 | 0.00 | 0.00 | 40 | 1009.8 |
| 20260503140303 | 8 | 103 | 0.0 | 1.6 | 0.00 | 0.00 | 0.00 | 47 | 1010.6 |
| 20260503131233 | 7 | 79 | 3.2 | 4.8 | 0.00 | 0.00 | 0.00 | 50 | 1010.8 |
| 20260503130730 | 7 | 94 | 3.2 | 4.8 | 0.00 | 0.00 | 0.00 | 53 | 1011.2 |
| 20260503130227 | 7 | 77 | 1.6 | 3.2 | 0.00 | 0.00 | 0.00 | 54 | 1011.2 |
| 20260503120153 | 6 | 82 | 1.6 | 4.8 | 0.00 | 0.00 | 0.00 | 71 | 1011.2 |
| 20260503110621 | 3 | 110 | 0.0 | 1.6 | 0.00 | 0.00 | 0.00 | 85 | 1011.1 |
| 20260503110118 | 3 | 128 | 0.0 | 0.0 | 0.00 | 0.00 | 0.00 | 86 | 1011.1 |